Flag for Ecuador Weather past 2 weeks in Quito, Ecuador

Now
52 °F

Passing clouds.


Feels Like: 52 °F
Forecast: 50 / 62 °F
Wind: 2 mph from Northeast

Location: Latacunga Airport

Current Time: Apr 18, 2015 at 8:25:12 PM

Latest Report: Apr 18, 2015 at 8:00 PM


Visibility: N/A

Pressure: 30.42 "Hg

Humidity: 94%

Dew point: 50 °F

Location of QuitoLocation

Historic Weather in Quito — Graph

°F

Quito temperature yesterday

Maximum temperature yesterday: 68 °F (at 1:00 PM)
Minimum temperature yesterday: 48 °F (at 5:00 AM)
Average temperature yesterday: 55 °F

Past Weeks' High & Low Weather Summary

 TemperatureHumidityPressure
High84 °F (Apr 9, 11:00 AM)100% (Apr 5, 11:00 PM)30.51 "Hg (Apr 5, 11:00 PM)
Low45 °F (Apr 4, 1:00 AM)49% (Apr 9, 3:00 PM)29.83 "Hg (Apr 9, 11:00 AM)
Average56 °F83%30.40 "Hg
* Reported Apr 3 7:00 PM — Apr 18 7:00 PM, Quito, Weather by CustomWeather, © 2015

Note: Actual official high and low records may vary slightly from our data, if they occured in-between our weather recording intervals... More about our weather records

Advertising

Quito weather history for previous 24 hours

 ConditionsComfort  
Time TempWeatherWind HumidityBarometerVisibility
7:00 PM
Sat, Apr 18
54 °FPassing clouds.3 mph88%30.39 "HgN/A
6:00 PM54 °FPartly sunny.6 mph88%30.36 "HgN/A
5:00 PM55 °FLight rain. Broken clouds.3 mph82%30.36 "HgN/A
4:00 PM54 °FLight rain. Broken clouds.5 mph88%30.36 "HgN/A
3:00 PM55 °FThunderstorms. Broken clouds.15 mph77%30.36 "HgN/A
2:00 PM66 °FScattered showers. Broken clouds.7 mph60%30.36 "HgN/A
1:00 PM66 °FPartly sunny.2 mph60%30.39 "HgN/A
12:00 PM64 °FScattered clouds.8 mph60%30.45 "HgN/A
11:00 AM63 °FScattered clouds.1 mph64%30.45 "HgN/A
9:00 AM54 °FScattered clouds.5 mph82%30.48 "HgN/A
8:00 AM50 °FPartly sunny.2 mph88%30.45 "HgN/A
7:00 AM46 °FPartly sunny.2 mph100%30.45 "HgN/A
6:00 AM46 °FPassing clouds.3 mph93%30.42 "HgN/A
4:00 AM46 °FPassing clouds.5 mph93%30.42 "HgN/A
3:00 AM50 °FPassing clouds.3 mph94%30.45 "HgN/A
2:00 AM50 °FPassing clouds.No wind94%30.45 "HgN/A
12:00 AM50 °FPassing clouds.No wind94%30.48 "HgN/A
11:00 PM
Fri, Apr 17
52 °FPassing clouds.No wind88%30.48 "HgN/A
10:00 PM50 °FPassing clouds.No wind94%30.48 "HgN/A
8:00 PM52 °FPassing clouds.No wind94%30.42 "HgN/A
Weather by CustomWeather, © 2015

See weather overviewHow to use our weather pages